Tracking 19281 objects as of 16-Nov-2018
HD Live streaming from Space Station
objects crossing your sky now

COSMOS 332

Track COSMOS 332 now!
10-day predictions
COSMOS 332 is classified as:


NORAD ID: 4369
Int'l Code: 1970-028A
Perigee: 722.9 km
Apogee: 733.1 km
Inclination: 74.0 °
Period: 99.2 minutes
Semi major axis: 7099 km
RCS: 3.6339 m2 (large)
Launch date: April 11, 1970
Source: Commonwealth of Independent States (former USSR) (CIS)
Launch site: PLESETSK MISSILE AND SPACE COMPLEX (PKMTR)
aabbcc
Your satellite tracking list
Your tracking list is empty




NASA's NSSDC Master Catalog

Two Line Element Set (TLE):
1  4369U 70028A   18319.62213407 +.00000029 +00000-0 +14165-4 0  9998
2  4369 074.0372 083.7358 0007159 279.7701 080.2651 14.51459703565980
Source of the keplerian elements: AFSPC